Location: Vancouver
(49.2500°N, 123.1330°W)
Time: 07:30:32
(UTC-07:00)

Daily predictions for brighter satellites

Satellite Brightness Start Highest point End
(mag) Time Altitude Azimuth Time Altitude Azimuth Time Altitude Azimuth
Cosmos 2074 Rocket 4.5 21:26:36 10° SSW 21:32:51 70° WNW 21:39:07 10° N
ARGOS 4.0 21:29:01 10° SE 21:33:52 36° ENE 21:38:45 10° N
Cosmos 1939 Rocket 2.9 21:31:04 10° S 21:34:57 81° WSW 21:38:57 10° NNW
Cosmos 1408 2.9 21:32:53 10° SSE 21:36:24 47° E 21:39:55 10° NNE
Cosmos 1782 Rocket 4.0 21:35:03 10° SSE 21:39:18 45° E 21:43:36 10° NNE
Terra 3.6 21:36:47 10° ESE 21:40:02 19° ENE 21:43:17 10° NNE
Sich 1 Rocket 3.8 21:36:11 10° S 21:40:47 87° W 21:45:24 10° N
Coronas F rocket 4.2 21:38:59 10° SW 21:41:08 22° WNW 21:43:18 10° NNW
Cosmos 1238 Rocket 2.4 21:38:12 10° N 21:41:24 80° ENE 21:45:08 10° S
SPOT 1/Viking Rocket 4.0 21:38:28 10° SE 21:43:26 47° ENE 21:48:25 10° N
Nadezhda 3 Rocket 4.2 21:38:53 10° N 21:45:16 84° W 21:51:39 10° S
Cosmos 1825 2.2 21:44:06 10° S 21:47:53 67° E 21:51:42 10° NNE
Cosmos 1975 Rocket 3.0 21:45:36 10° N 21:49:57 78° E 21:54:17 10° SSE
SPOT 5 3.2 21:45:14 10° SSE 21:50:34 86° ENE 21:55:58 10° NNW
COS B Rocket 3.4 21:49:17 10° N 21:53:26 81° W 21:57:09 10° S
Cosmos 2084 3.1 21:49:54 10° SSW 21:53:41 62° SE 21:57:30 10° NE
Cosmos 1833 Rocket 3.1 21:48:24 10° NNW 21:53:55 53° NE 21:59:10 11° SE
Cosmos 1850 Rocket 4.1 21:49:44 10° NNW 21:55:06 81° ENE 22:00:27 10° SSE
DNEPR-1 R/B 4.2 21:53:22 10° NW 21:58:58 64° WSW 22:03:31 10° SSE
Cosmos 1378 Rocket 4.2 21:56:11 10° NNW 22:00:25 55° W 22:04:38 10° S
MetOp-A 4.2 21:55:26 10° SSE 22:00:48 90° E 22:06:12 10° NNW
Cosmos 1727 Rocket 4.5 21:55:47 10° N 22:01:41 44° ENE 22:07:08 12° SE
Cosmos 2278 Rocket 2.2 21:56:17 10° SSW 22:01:56 72° ESE 22:07:37 10° NNE
Cosmos 1844 Rocket 3.3 21:56:30 10° SW 22:02:07 64° WNW 22:07:44 10° NNE
Cosmos 1536 Rocket 4.4 21:58:31 10° N 22:02:43 38° ENE 22:06:20 13° SE
Cosmos 1908 Rocket 4.1 21:59:35 10° SSW 22:03:58 64° WNW 22:08:25 10° N
Cosmos 1844 4.0 22:01:50 10° SW 22:07:37 75° WNW 22:13:28 10° NNE
deb Chang Zheng 4 3.9 22:06:34 10° N 22:10:59 71° WNW 22:15:23 10° SSW
Cosmos 1812 3.9 22:08:41 10° N 22:12:05 28° ENE 22:14:33 15° SE
USA 229 DEB 3.8 22:07:35 10° NW 22:14:43 89° SW 22:20:58 14° SE
USA 229 3.8 22:07:41 10° NW 22:14:49 90° SW 22:21:04 14° SE
Cosmos 1741 Rocket 4.2 22:10:55 10° NNW 22:16:10 73° WSW 22:21:05 11° SSE
Cosmos 2341 Rocket 4.2 22:10:58 10° SSW 22:17:16 79° W 22:23:33 10° N
Cosmos 2082 Rocket 2.2 22:12:02 10° NNW 22:17:47 90° WSW 22:22:40 14° SSE
USA 245 3.4 22:19:50 13° S 22:22:56 80° WSW 22:27:25 10° NNW
Meteor 1-14 Rocket 4.2 22:20:07 10° S 22:25:43 67° E 22:31:15 10° NNE
BREEZE-M DEB 4.2 22:22:13 10° WSW 22:26:09 57° SSE 22:28:39 11° E
SL-8 Rocket 4.0 22:20:52 10° S 22:27:07 78° E 22:33:21 10° NNE
H-2A R/B 3.9 22:29:05 10° SSW 22:32:41 26° W 22:36:15 10° NW
NOSS 3-1 (A) 4.5 22:25:39 10° NW 22:32:45 53° NE 22:40:02 12° ESE
IGS 5A 4.2 22:30:57 19° SE 22:33:31 40° ENE 22:37:26 10° N
Cosmos 2151 Rocket 3.7 22:31:05 12° S 22:35:09 64° E 22:39:39 10° NNE
CZ-4 R/B 3.8 22:33:19 10° NNE 22:37:58 58° ESE 22:41:53 14° S
Cosmos 2297 3.7 22:32:42 10° SSW 22:38:23 73° ESE 22:44:08 10° NNE
NOAA 11 4.5 22:39:28 13° S 22:44:23 68° WSW 22:49:54 10° NNW
APEX 3.8 22:42:06 10° SSW 22:46:19 84° WNW 22:51:57 10° NNE
Cosmos 1420 Rocket 4.4 22:44:24 10° SW 22:49:36 64° WNW 22:54:49 10° NNE
Cosmos 1300 Rocket 4.2 22:47:41 24° SE 22:49:51 39° E 22:54:01 10° NNE
Intercosmos 25 4.0 22:48:11 10° SSW 22:51:22 43° WNW 22:54:29 10° N
SL-8 R/B 3.6 22:47:42 10° W 22:52:33 83° S 22:57:06 12° E
ATLAS 2AS CENTAUR R/B 4.1 22:45:50 10° NW 22:53:28 40° NNE 23:00:53 10° E
BREEZE-M TANK 3.5 22:41:32 10° W 22:53:44 61° SSW 22:56:11 22° ESE
Okean 1 Rocket 3.7 22:52:59 25° SE 22:54:59 39° E 22:59:09 10° NNE
CZ-4C R/B 3.4 22:53:00 23° S 22:55:24 82° WSW 22:59:38 10° NNW
Cosmos 864 Rocket 4.4 22:51:04 10° S 22:57:08 88° E 23:03:22 10° N
Cosmos 1486 Rocket 4.2 22:51:53 10° NNW 22:57:13 67° ENE 23:00:23 25° SE
Gbstr 26 Del rocket 3.2 22:53:32 10° WNW 22:58:44 68° SSW 23:01:02 27° SE
Landsat 7 4.0 22:58:20 21° S 23:01:33 71° WSW 23:06:20 10° NNW
NOSS 3-1 (C) 4.0 22:55:11 10° NW 23:02:33 79° NE 23:08:26 21° SE
Okean 1-7 Rocket 3.7 22:59:40 10° N 23:04:10 64° ENE 23:06:19 29° SSE
CZ-4B R/B 3.8 22:59:34 10° N 23:04:31 65° WNW 23:09:18 10° SSW
ISS -3.4 23:03:03 10° WSW 23:06:19 84° NNW 23:09:36 10° ENE
Cosmos 1400 Rocket 4.1 23:06:01 23° ESE 23:06:48 25° E 23:10:12 10° NE
H-2A R/B 2.2 23:03:31 22° S 23:07:08 77° WSW 23:12:26 10° NNW
Cosmos 2366 rocket 4.2 23:01:59 10° SSW 23:08:17 75° WNW 23:14:40 10° N
Cosmos 1536 4.2 23:08:23 21° E 23:08:57 22° E 23:12:05 10° NE
Cosmos 1633 4.3 23:08:46 19° E 23:09:00 19° E 23:11:43 10° NE
Cosmos 2369 Rocket 3.5 23:08:35 20° ESE 23:09:33 21° E 23:13:38 10° NE
USA 234 3.8 23:06:59 10° ENE 23:12:53 35° SE 23:17:24 16° S
ARGOS 4.2 23:09:33 12° SSW 23:14:05 38° W 23:19:05 10° NNW
Terra 2.0 23:14:33 26° S 23:17:16 71° WSW 23:22:03 10° NNW
Meteor 1-19 Rocket 4.5 23:12:22 10° N 23:18:12 61° ENE 23:21:15 28° SE
Timation 1 Rocket 4.3 23:13:09 10° SSW 23:19:08 75° ESE 23:25:09 10° NNE
Okean 1 3.9 23:24:12 10° NNW 23:28:10 51° W 23:30:04 27° SSW
Cosmos 1302 Rocket 4.2 23:27:10 31° SSE 23:29:27 53° ESE 23:34:37 10° NNE
Meteor 1-20 Rocket 4.3 23:25:11 16° SSW 23:29:40 74° WNW 23:35:12 10° N
CARTOSAT-1 4.3 23:30:00 25° SSW 23:32:10 46° W 23:36:20 10° NNW
Spot 4 4.0 23:29:47 29° S 23:32:12 68° WSW 23:37:04 10° NNW
Spot 2 4.0 23:30:19 10° NNE 23:34:41 68° ESE 23:36:03 40° S
Cosmos 1833 Rocket 4.0 23:32:47 10° NW 23:37:34 30° WSW 23:40:52 17° SSW
SAR-Lupe-2 3.9 23:37:24 41° SSW 23:38:21 56° WSW 23:41:53 10° NNW
BREEZE-M DEB (TANK) 4.2 23:35:44 10° W 23:39:44 87° N 23:54:33 10° E
Cosmos 1943 Rocket 3.9 23:41:12 16° ESE 23:41:30 16° E 23:44:44 10° ENE
Lacrosse 5 2.2 23:43:14 37° SSE 23:44:23 43° SE 23:49:13 10° ENE
Cosmos 2278 Rocket 4.4 23:41:52 10° W 23:46:35 26° NW 23:51:21 10° NNE
Cosmos 1812 4.5 23:44:40 10° NNW 23:47:54 26° W 23:49:44 18° SW
Cosmos 2239 Rocket 4.5 23:45:30 29° S 23:48:55 79° E 23:55:15 10° NNE
Cosmos 1602 3.6 23:49:00 52° S 23:49:54 86° E 23:53:50 10° N
Iridium 4 Rocket 3.8 23:46:06 10° N 23:52:01 86° E 23:54:46 34° S
ASTEX 1 3.8 23:49:42 10° N 23:54:36 61° W 23:57:15 27° SSW
Cosmos 1892 Rocket 3.5 23:50:28 10° N 23:54:51 71° E 23:55:57 48° SE
Cosmos 2084 Rocket 3.1 23:51:49 10° NW 23:55:43 86° NE 23:56:31 56° SE
